sat.trackr.live / text

‹ back to catalog

STARLINK-34473

NORAD 64354 · 2025-126L

PAYLOAD ACTIVE UNKNOWN

§ Identity

Operator
Country
US
Launch date
2025-06-13
Launch site
AFWTR
Launch vehicle
Mass (kg)
RCS (m²)

Purposes: comms

External: N2YO · Heavens-Above · Gunter

§ Orbital elements

Epoch: 2026-09-20T23:12:39.419424Z

Period
94.10 min
Inclination
70.0037°
Eccentricity
0.0005617
Mean motion
15.30252517 rev/d
Perigee alt
471.2 km
Apogee alt
478.9 km
Semi-major
6,853.2 km
B*
6.9300e-3
RAAN
259.6596°
Arg perigee
283.7615°
Mean anomaly
76.2935°
Rev number
6,999

§ Raw data

STARLINK-344731 64354U 25126L   26263.96712291  .00209060  00000+0  69300-2 0  99902 64354  70.0037 259.6596 0005617 283.7615  76.2935 15.30252517 69990

JSON: /api/v1/satellites/64354 · /tle

For live sub-satellite position, see the globe view (requires WebGL).

§ Visibility from observer

Set your observer location to see the next 7 days of passes ≥ 10°. The values pass through the URL so the page stays shareable.

No JS? Fill the form by hand. The geolocation button needs JavaScript.